Dewpoint
60 58 56 55 50 49 47 44 27 38 32 25 23 24 16 29 34 27 25 26 23 20 22 28 25 28 23 25 27 28 27 24 22 17 26 42 57 57 62 62 62 62 62 66 67 69 70 70 71 72 71 71 71 71 71 71 70 70 70 70 70 70 70 70 70 69 70 69 69 69 69 69 69 69 69 69 68 69 69 70 70 69 69 69 69 69 69 69 68 68 68 68 68 67 67 66 65
55 55 54 55 49 44 39 38 30 25 29 21 19 22 23 30 29 25 21 24 25 23 29 26 26 28 29 30 30 29 26 28 25 27 33 40 47 52 57 63 60 59 63 66 66 67 68 70 70 72 71 71 71 71 71 71 71 70 70 70 70 70 70 70 70 69 69 69 69 69 69 69 69 69 69 68 69 69 69 69 69 69 69 69 68 68 68 68 68 67 67 67 67 66 65 64 64
52 53 52 50 47 43 42 37 23 28 21 13 9 17 30 23 23 20 22 24 26 24 27 30 30 27 26 28 24 24 21 32 32 33 33 49 39 51 56 62 62 62 64 66 66 66 67 68 70 71 71 71 71 71 71 71 71 70 70 70 70 70 70 70 70 70 69 69 69 69 69 69 69 69 68 68 68 68 68 68 68 69 69 68 68 68 68 67 67 66 66 66 66 65 64 63 63
56 52 51 46 39 42 34 32 28 22 19 16 13 23 24 22 19 22 25 26 27 26 24 29 28 30 26 24 24 28 26 25 30 34 32 40 45 55 57 59 63 61 64 67 66 66 66 67 69 71 71 71 71 71 71 71 71 70 71 70 70 70 71 70 70 70 69 69 69 69 69 69 69 68 67 67 66 67 67 67 67 69 69 69 68 67 67 67 66 65 64 65 64 63 63 62 62
54 49 52 46 40 33 33 35 31 29 15 18 9 16 22 24 22 24 25 27 27 27 25 27 27 29 30 29 28 24 20 31 32 37 37 47 53 53 58 62 61 61 64 64 65 65 66 68 69 70 71 71 71 71 71 71 71 70 70 70 70 70 71 71 70 69 69 69 69 69 69 69 68 67 67 66 65 65 66 66 67 67 67 67 67 67 66 66 65 64 64 64 63 62 62 61 60
51 47 50 48 34 40 33 27 28 22 19 19 15 15 21 22 22 26 27 28 27 27 26 26 24 22 21 24 28 24 31 20 39 35 45 46 50 57 59 63 60 61 62 64 65 65 65 68 69 70 71 71 70 70 71 71 70 70 70 70 70 70 71 70 69 69 69 69 69 69 69 69 68 67 66 66 65 64 65 65 66 65 65 66 66 65 65 64 64 63 63 63 62 62 61 60 59
47 44 42 39 40 39 29 27 24 22 22 25 21 19 18 20 26 28 25 25 26 27 27 25 24 24 22 23 24 27 33 42 31 38 52 52 57 59 61 60 61 60 62 63 64 65 66 67 70 70 70 70 70 70 70 70 70 70 70 70 70 70 71 70 69 69 69 69 69 69 69 68 67 67 66 65 64 63 63 63 63 64 64 64 63 64 63 63 63 62 62 62 61 60 59 58 57
48 45 42 30 34 32 28 26 26 27 24 26 26 27 22 22 29 28 26 26 24 23 26 26 25 22 21 23 19 33 35 36 41 45 44 45 57 62 62 60 60 61 62 63 64 65 66 67 69 70 70 70 70 70 70 70 69 70 70 70 70 70 70 70 70 69 69 69 69 69 69 67 67 66 65 64 63 63 63 63 63 63 63 63 63 63 62 61 62 61 61 61 60 59 58 58 57
42 39 44 38 26 34 26 22 24 31 27 32 28 33 35 31 30 28 27 28 27 27 25 25 25 22 22 22 22 31 27 38 40 46 48 50 57 62 61 60 60 62 62 63 63 66 68 66 68 69 70 70 70 70 70 70 70 70 69 70 70 70 70 70 70 69 69 69 68 68 67 67 66 65 64 63 62 62 62 63 63 62 62 63 62 62 61 60 60 61 61 60 59 58 58 57 57
39 39 31 32 33 23 26 21 21 21 27 27 25 22 22 23 25 29 27 26 27 26 25 24 25 22 22 20 21 24 28 41 44 45 47 48 55 60 60 62 62 63 63 63 63 65 66 66 66 68 69 70 70 70 70 70 69 70 70 70 70 70 70 70 70 70 69 68 67 67 67 66 66 64 64 62 61 61 62 62 62 62 61 62 61 60 60 60 60 60 60 59 58 58 58 57 56
32 34 40 30 27 23 22 15 22 24 25 23 25 26 26 28 28 27 28 26 27 25 23 25 23 23 22 22 22 35 41 36 40 37 47 48 56 59 59 61 63 63 62 64 64 65 65 67 64 66 67 68 69 70 70 70 70 70 70 70 70 70 70 70 69 68 68 67 67 66 65 64 64 63 63 61 60 61 61 61 61 60 59 59 60 59 61 60 60 60 60 59 59 58 57 56 56
31 31 34 26 22 21 18 20 21 21 24 29 25 26 27 26 29 25 26 24 24 25 25 25 22 23 22 22 25 28 31 31 38 47 46 52 52 59 60 60 62 62 64 64 64 65 65 66 67 64 64 65 67 68 69 69 69 70 70 70 70 70 69 69 69 69 68 67 67 65 65 64 64 63 62 60 60 59 59 59 59 60 59 59 59 60 60 60 60 60 59 58 58 57 56 56 54
36 38 27 20 21 20 30 23 22 29 26 23 18 24 26 27 24 21 22 23 24 23 22 24 26 23 20 23 29 28 24 41 42 42 49 48 52 57 61 59 60 61 62 63 64 64 66 64 65 66 66 63 64 65 66 67 67 68 69 69 68 68 68 68 68 68 67 67 67 66 66 65 65 64 61 60 60 60 59 59 59 59 60 60 59 60 60 60 60 59 58 58 58 57 55 55 54
33 39 29 25 30 26 23 21 27 24 15 22 22 25 26 25 24 24 23 22 21 21 23 24 24 24 23 24 23 23 25 43 45 47 48 51 53 56 59 59 61 61 62 63 63 63 65 64 63 65 66 67 67 64 63 65 66 67 67 67 67 67 67 68 68 67 67 67 66 66 65 65 64 64 62 60 60 59 59 60 60 60 60 60 60 60 60 60 59 59 59 58 57 56 56 54 53
34 38 29 30 28 26 29 24 24 24 17 24 23 22 23 25 25 26 23 22 20 24 25 25 27 22 16 19 13 25 32 43 48 48 50 52 54 55 59 59 60 61 61 61 62 62 63 64 62 64 65 64 65 65 65 66 63 65 65 66 66 66 66 67 67 66 65 65 64 63 61 62 61 61 62 62 61 61 61 61 60 60 60 60 60 60 60 60 59 59 58 58 57 56 55 54 53
41 37 33 28 25 25 26 25 28 26 19 21 25 25 23 22 25 23 22 23 24 29 25 21 26 21 21 21 20 29 33 43 46 49 50 52 55 56 57 58 58 58 60 61 61 62 62 62 63 63 64 64 64 64 63 64 63 61 63 64 64 65 65 65 65 64 62 61 61 60 59 60 58 59 58 58 61 61 61 59 61 60 60 59 60 60 59 59 59 59 58 57 56 55 54 52 51
40 39 28 28 19 26 27 23 26 18 20 22 26 24 20 18 24 23 23 23 21 21 24 23 23 25 23 22 29 29 39 45 48 48 49 49 51 52 55 56 57 57 57 59 60 60 61 61 62 63 63 63 64 63 63 64 64 61 61 62 63 63 63 63 64 61 59 59 59 57 57 59 59 59 60 58 58 59 58 57 60 59 59 59 59 59 59 59 59 59 58 57 56 54 53 52 50
38 30 26 26 21 25 25 21 24 24 18 17 21 21 20 19 23 23 22 21 21 21 22 23 24 24 24 25 35 39 43 42 45 45 45 47 49 49 51 54 55 55 57 58 58 59 59 60 61 61 63 63 63 64 64 64 65 62 64 64 65 64 62 61 63 63 59 62 58 59 59 58 58 58 58 57 58 58 58 56 58 61 59 60 59 58 58 58 58 58 57 56 55 52 49 46 44
33 32 28 22 27 23 23 22 21 21 19 20 20 21 21 21 23 23 22 21 22 21 22 22 21 22 23 24 27 34 39 40 43 41 40 44 46 45 48 52 54 54 56 57 57 57 58 59 59 60 61 63 63 63 64 64 64 63 63 63 63 62 63 63 63 62 61 62 61 60 58 58 58 57 57 57 57 56 56 56 58 60 59 59 58 58 57 57 56 55 54 52 49 45 42 40 39
35 31 26 26 28 26 24 25 22 23 21 21 22 23 23 23 23 22 23 22 22 21 20 20 22 21 22 22 23 24 32 33 40 40 38 39 41 41 43 48 51 53 54 56 57 57 57 57 58 59 60 62 62 61 63 62 62 62 62 62 62 62 63 63 63 62 62 62 61 60 58 58 59 57 54 54 55 57 57 55 57 58 58 58 57 56 56 55 54 52 50 46 40 43 36 32 33
35 30 27 27 29 27 25 25 24 23 24 23 23 24 24 25 25 23 22 22 21 21 22 21 18 16 18 22 25 29 30 32 36 38 38 38 40 40 39 42 46 50 53 55 57 56 56 56 57 58 59 61 62 61 60 60 61 61 60 60 60 60 61 62 62 62 62 62 61 58 58 58 58 57 57 56 57 56 55 56 57 56 56 55 54 55 54 54 51 48 41 36 35 37 35 34 33
35 28 27 27 29 27 26 26 27 26 27 25 26 26 25 24 23 22 23 22 19 16 19 22 20 21 22 22 23 27 28 31 32 35 37 38 39 39 40 42 44 47 52 52 54 55 56 56 57 57 58 59 60 61 60 61 60 60 59 59 59 60 61 61 61 61 60 60 59 58 57 58 57 56 56 56 56 54 55 55 55 54 54 54 53 52 51 49 45 40 36 35 33 34 35 35 34
26 27 29 29 30 27 28 28 28 27 26 26 26 26 27 26 25 25 24 23 22 22 22 22 23 23 23 24 25 25 29 29 30 34 35 37 38 38 38 40 41 44 48 49 51 53 54 55 56 57 57 58 59 60 60 60 60 61 60 59 60 59 59 60 59 59 59 59 58 57 57 56 56 55 55 55 54 53 53 53 53 53 53 51 50 48 46 43 36 33 33 35 34 34 35 35 34
29 23 30 28 30 30 30 29 28 27 27 27 27 28 28 27 26 27 25 25 24 24 24 23 24 24 24 24 24 24 26 26 29 29 32 33 35 36 39 39 39 42 47 48 50 51 54 54 54 55 56 57 58 59 59 59 59 60 60 59 60 59 59 59 59 58 58 56 57 55 55 56 55 54 53 53 53 52 52 52 52 51 50 48 46 45 43 37 33 34 36 36 35 34 35 34 31
29 28 29 28 29 28 29 30 30 30 30 30 30 29 27 26 26 25 24 25 25 24 24 24 25 25 24 24 23 24 25 28 28 29 32 35 36 38 42 42 42 43 44 46 49 50 52 53 53 54 55 55 56 57 57 58 58 59 59 59 59 58 58 58 58 58 56 55 54 54 54 54 54 53 52 51 51 50 50 50 49 49 48 45 43 39 38 34 32 32 33 32 31 30 30 31 31
29 26 27 28 28 27 28 28 28 28 28 29 27 25 24 24 24 22 22 23 24 25 24 23 23 23 22 22 22 22 22 25 30 29 28 33 36 35 36 38 40 39 41 43 47 49 49 51 52 53 54 55 55 56 57 57 57 58 58 58 58 57 58 58 58 56 56 54 53 53 53 54 53 52 51 50 49 49 48 49 48 47 45 43 40 37 33 30 30 31 32 33 32 31 28 30 27
28 27 26 25 24 24 25 24 23 24 25 26 23 21 20 21 21 16 18 19 21 22 21 21 21 20 19 19 21 21 21 23 23 24 27 30 31 34 35 38 40 39 40 42 43 47 49 50 52 52 53 55 55 55 56 56 56 56 57 57 58 57 57 57 56 56 55 53 52 52 52 52 52 51 50 48 47 47 46 46 45 44 43 40 38 35 32 33 31 29 32 28 27 27 26 27 26
23 22 22 22 21 23 22 22 21 22 20 24 23 21 20 21 23 19 18 20 19 19 18 18 18 20 19 18 18 24 22 22 22 25 27 26 29 31 32 35 38 40 41 42 42 45 47 48 49 51 52 53 54 54 55 55 55 56 57 57 56 57 57 56 56 55 53 53 52 51 50 50 49 49 49 47 46 45 44 43 43 42 41 38 35 34 32 33 32 36 37 35 33 30 27 26 29
23 22 19 18 19 18 17 18 17 22 19 21 22 20 17 19 17 18 19 19 18 17 16 15 15 15 18 20 18 19 19 19 22 24 25 24 26 27 29 33 36 38 40 41 42 44 44 46 48 49 51 52 53 53 54 54 55 55 55 56 56 56 55 56 55 54 53 52 51 50 49 48 46 47 46 46 44 44 42 42 40 40 39 36 33 35 36 35 33 32 34 32 29 29 28 29 33
22 21 19 17 15 15 16 16 19 19 18 21 18 11 9 9 16 16 14 16 15 13 13 13 14 14 14 16 15 17 18 21 21 27 25 26 26 25 26 26 33 35 37 40 41 42 42 45 48 50 51 51 53 52 53 54 54 54 54 55 54 55 54 54 54 54 52 51 50 50 49 47 45 44 45 45 43 41 41 40 39 37 35 35 34 35 32 29 27 30 30 26 29 24 26 25 21
17 19 19 17 17 14 18 18 17 16 20 21 17 15 11 11 12 13 18 14 14 13 14 13 14 14 15 18 19 20 19 20 20 18 24 30 26 27 28 26 28 32 36 38 40 41 39 43 47 47 50 51 52 52 52 53 54 53 53 53 53 54 54 53 52 52 51 50 49 48 48 46 44 43 43 42 41 39 38 37 36 34 34 35 33 30 27 28 30 31 26 24 24 23 25 26 27
19 16 17 22 17 15 16 19 17 14 18 20 16 16 13 12 12 13 16 17 16 14 14 14 15 15 15 16 16 16 17 17 20 21 21 21 26 24 28 27 27 28 32 36 39 40 38 39 45 46 49 50 52 52 52 52 52 53 52 51 52 53 52 52 51 51 50 49 47 48 47 46 44 42 41 41 39 37 35 34 33 32 35 32 31 31 30 28 28 31 29 28 22 24 24 24 26
19 18 21 20 20 18 16 15 17 17 18 20 15 11 10 10 12 13 16 15 15 15 15 15 15 15 15 15 16 16 19 19 22 19 23 23 24 24 24 23 28 31 31 34 36 40 39 39 41 43 46 48 50 51 52 52 52 52 51 51 51 52 51 50 50 49 49 48 46 45 45 44 43 42 40 40 38 37 34 33 30 35 33 30 32 31 29 28 31 33 28 27 24 21 22 25 24
22 21 18 23 17 13 13 14 16 25 16 14 17 15 13 13 14 15 15 15 15 15 15 15 15 15 16 17 17 16 17 19 18 19 20 23 22 23 20 28 27 28 31 33 36 37 38 38 41 43 45 47 49 50 51 51 51 51 51 50 50 49 50 49 49 48 47 47 45 44 44 43 42 41 40 39 36 36 34 33 32 33 31 31 31 29 26 28 30 28 26 28 26 20 18 22 21
23 21 22 18 17 15 13 14 14 15 16 14 14 15 14 14 15 15 15 16 15 15 15 15 15 15 16 17 18 17 19 20 19 20 24 26 28 28 27 28 30 33 29 29 33 35 38 39 40 42 43 45 47 49 51 51 51 50 50 50 49 48 48 48 47 46 46 45 45 45 43 42 40 41 39 38 35 34 33 33 32 33 30 30 30 29 30 30 30 28 28 25 26 24 17 19 22
18 18 16 16 17 14 14 15 15 16 15 15 15 14 14 14 15 15 15 15 15 15 16 16 16 17 17 17 19 20 23 20 24 28 34 32 31 31 30 30 32 33 29 27 30 35 37 38 40 40 41 41 46 47 49 49 49 48 48 48 47 46 46 46 46 45 45 44 44 43 43 41 39 39 38 37 35 34 32 32 31 33 30 29 29 29 28 27 29 31 29 28 26 27 29 29 28
18 22 22 16 16 16 17 17 17 17 16 15 15 15 14 15 15 16 16 17 17 17 17 18 18 19 22 23 22 23 23 22 34 35 35 35 36 33 36 38 36 33 30 28 28 32 35 36 39 39 39 39 42 45 47 47 48 48 47 46 46 46 45 45 44 44 43 42 42 42 43 41 39 38 38 37 34 34 32 32 32 32 30 28 27 28 29 29 29 28 27 26 26 22 25 28 29
19 20 21 18 22 18 17 17 18 18 17 16 16 15 17 17 17 17 17 17 17 17 17 18 17 18 20 22 23 25 23 31 35 31 26 27 29 33 32 34 37 32 30 29 30 31 34 35 36 38 39 37 39 42 45 46 47 47 46 46 45 44 43 42 42 42 41 42 40 41 41 41 39 38 36 36 34 33 32 31 31 30 28 26 27 28 32 32 30 29 28 23 26 21 19 27 30
21 19 20 22 19 21 19 19 18 18 17 15 16 16 17 17 17 17 17 17 18 18 18 19 21 22 22 23 25 25 26 27 25 22 25 24 30 30 31 31 30 31 33 33 33 33 32 34 36 37 38 38 38 40 43 45 46 46 45 45 44 43 43 42 42 41 40 39 39 40 39 39 40 38 37 36 34 34 33 31 30 29 28 27 26 29 30 30 28 29 26 20 22 24 20 28 28
21 21 21 19 22 21 18 19 19 19 18 17 18 17 16 17 17 18 18 17 18 22 22 25 24 22 21 20 23 27 24 24 24 23 23 24 26 27 29 30 31 33 32 32 32 32 30 31 33 36 37 37 38 39 41 44 45 45 45 43 42 42 40 40 40 38 39 39 38 38 37 38 38 38 37 36 35 34 33 31 30 28 27 28 25 25 28 29 29 28 26 23 21 21 23 20 28
26 26 23 21 22 21 19 16 19 19 18 21 18 19 18 17 13 12 16 18 19 20 19 20 24 30 28 32 31 27 23 24 25 25 25 25 25 26 27 28 29 30 30 32 32 32 30 32 33 35 36 36 37 38 40 42 43 43 42 42 41 41 40 38 38 38 38 37 37 36 36 36 37 37 37 36 34 34 34 32 30 28 27 27 25 25 26 28 29 28 27 24 21 14 19 16 24
22 29 24 20 19 18 17 20 21 18 19 20 20 18 19 16 17 16 18 18 17 18 19 19 20 22 25 23 22 25 28 27 26 26 27 27 26 26 27 28 28 28 29 31 32 32 32 33 33 34 35 36 36 38 39 39 40 40 40 39 38 38 37 37 36 37 36 36 36 36 35 35 36 36 36 37 35 34 34 33 33 30 28 26 25 24 26 28 29 28 28 25 23 19 18 21 19
22 20 26 21 19 20 22 22 23 17 17 20 20 17 19 17 16 16 17 18 17 18 21 20 19 18 20 22 24 24 25 26 28 27 28 27 28 27 26 26 27 27 28 31 33 32 33 33 34 35 34 35 37 37 39 38 39 39 39 39 39 38 37 37 36 36 35 35 35 34 34 35 35 35 36 35 35 34 34 34 34 32 28 26 25 23 24 27 28 29 28 25 23 23 25 18 20
20 32 26 22 21 25 26 24 23 19 25 27 22 19 18 20 18 18 17 17 17 17 18 20 19 17 19 22 25 26 27 27 28 28 28 28 28 27 27 27 26 26 28 30 32 32 34 33 34 34 34 34 36 37 37 37 37 38 39 39 38 38 37 37 36 35 35 34 34 34 33 33 34 34 34 35 35 35 34 34 34 33 30 28 25 23 23 25 28 31 29 27 25 21 26 16 20
23 29 29 26 19 24 26 24 21 22 18 18 21 26 17 18 19 17 16 16 17 16 17 18 18 20 21 25 26 26 27 28 28 29 29 28 28 28 27 28 28 29 30 29 30 32 33 32 33 33 34 34 35 36 36 38 37 37 38 37 38 37 37 37 36 35 34 34 34 33 33 32 33 34 34 35 35 35 33 34 34 33 31 29 25 24 24 26 28 28 28 26 25 22 23 23 23
28 29 29 29 28 27 26 21 21 20 16 20 20 22 17 17 20 17 18 17 16 16 17 17 18 22 25 25 27 27 27 29 29 29 29 29 29 28 28 28 28 29 30 31 31 31 32 31 31 31 32 33 34 35 35 37 37 36 37 37 38 37 36 35 35 34 35 35 34 34 33 32 31 32 33 34 35 34 34 33 34 33 32 30 26 24 26 28 29 29 28 26 26 25 23 24 25
31 31 28 26 25 24 22 23 19 21 18 22 22 21 18 15 19 17 21 22 16 16 17 17 19 25 25 26 27 28 28 28 29 29 29 29 29 28 28 27 28 28 29 28 30 31 31 30 29 29 30 31 32 34 35 36 36 36 36 37 38 38 38 37 35 35 34 35 33 34 33 32 32 31 32 32 34 34 34 33 33 33 31 30 27 27 26 26 26 27 28 28 27 26 23 25 27
29 24 21 22 23 18 20 20 21 18 18 20 19 22 19 15 18 21 15 15 15 17 17 17 20 24 27 27 27 27 27 27 27 27 28 28 28 28 28 28 28 28 28 28 28 29 30 29 29 28 28 29 31 32 34 35 35 36 36 37 37 37 36 37 35 35 35 35 34 33 33 32 31 32 31 31 32 33 33 33 33 33 31 30 28 27 25 24 25 26 26 26 25 28 26 26 25
25 22 20 18 19 20 18 18 17 16 17 21 18 22 16 15 14 15 16 15 17 18 18 18 23 25 26 27 27 27 27 27 27 26 26 27 27 27 27 27 28 28 28 28 28 28 28 27 28 28 28 28 28 30 32 33 34 34 35 35 35 35 35 36 35 35 35 34 34 33 33 32 32 32 31 30 31 33 32 32 32 31 30 30 29 28 27 26 26 25 26 27 26 27 24 24 21
22 20 19 19 18 18 18 18 17 16 22 17 16 20 16 16 16 18 17 17 18 20 24 26 26 26 26 26 27 25 26 26 26 26 26 26 26 27 27 27 27 28 27 28 28 28 27 27 26 27 28 29 28 29 29 30 32 33 34 34 34 33 34 34 34 33 34 33 34 33 33 32 32 32 31 32 31 32 32 32 32 31 31 30 30 30 29 28 27 24 25 25 26 26 25 27 24
21 26 21 22 22 20 18 17 17 19 18 18 17 20 20 17 18 20 19 20 24 25 26 28 29 28 28 26 25 23 23 23 24 24 24 24 25 26 27 27 27 27 27 28 27 27 27 26 26 25 27 28 28 29 29 29 29 30 31 32 33 33 33 32 32 34 32 33 33 33 33 33 32 32 32 32 32 32 32 32 32 31 31 31 30 30 31 28 28 25 24 26 24 24 25 25 21
26 27 25 21 21 23 19 20 21 21 20 21 20 18 22 17 21 23 22 25 26 26 26 26 26 25 26 23 23 22 22 22 23 23 23 23 24 25 26 26 26 26 27 27 26 27 27 26 25 25 25 27 28 28 28 28 28 28 30 30 31 32 32 32 32 32 31 32 33 32 32 33 32 32 33 33 33 33 32 32 31 31 31 31 30 30 29 27 27 25 22 23 24 27 23 25 21
23 23 20 22 28 24 21 24 24 24 19 18 23 20 22 21 20 19 22 24 25 25 25 25 24 24 24 23 22 21 21 21 21 22 21 21 22 23 25 25 25 26 26 26 26 26 26 25 25 24 24 25 27 28 28 28 28 28 28 28 29 30 31 32 32 32 33 33 33 32 32 32 33 33 34 34 34 33 32 32 31 30 30 30 30 29 29 28 27 25 22 23 23 23 22 23 21
23 20 24 30 31 27 21 18 21 19 18 19 21 19 17 16 16 22 22 23 24 25 24 23 23 23 22 22 22 21 21 21 19 19 19 20 20 21 23 24 24 24 25 26 26 27 26 27 25 24 23 24 25 26 27 27 27 28 28 27 27 28 28 29 30 30 31 32 32 31 31 32 32 33 33 35 33 32 32 31 30 29 29 29 29 28 28 27 27 24 23 22 21 22 22 20 21
25 25 34 23 21 21 19 21 17 18 18 19 19 19 19 20 16 14 17 22 23 24 24 22 21 21 22 21 21 21 21 20 20 19 18 19 18 20 21 22 23 25 25 26 26 26 26 26 25 24 23 23 24 26 26 26 26 28 28 26 25 25 26 27 28 29 30 31 31 31 31 31 32 32 32 32 31 29 29 29 28 28 27 27 27 27 26 25 24 23 22 20 22 22 20 19 20
31 32 33 33 25 22 22 21 24 23 20 21 21 18 17 22 17 16 18 24 25 24 23 21 21 21 20 21 21 20 20 20 19 18 19 19 18 19 20 21 23 24 24 26 26 26 25 26 25 24 23 22 22 23 24 24 24 25 26 24 24 25 24 24 25 26 26 26 28 29 29 29 31 30 31 30 29 28 28 27 27 27 26 26 25 25 25 24 23 22 20 19 18 19 18 16 17
21 21 20 26 27 30 27 26 27 23 21 20 19 17 19 21 26 25 25 25 25 24 24 23 21 21 21 20 20 20 19 18 18 18 18 18 18 19 20 22 24 24 25 25 26 25 25 24 25 24 22 22 22 23 24 24 24 24 24 23 23 23 23 23 23 23 23 24 25 26 27 28 28 27 28 28 28 28 27 27 26 26 26 25 24 23 23 23 22 21 20 19 18 18 18 17 16
25 26 23 22 23 26 22 21 26 25 22 21 19 19 22 27 26 26 26 26 25 25 23 22 21 21 21 21 19 19 18 17 16 17 17 18 17 18 19 21 23 24 24 24 25 25 24 23 23 23 22 21 22 22 23 23 23 24 24 24 23 22 23 23 23 22 22 22 23 24 24 25 24 25 26 27 26 27 27 26 26 26 25 25 24 23 22 22 21 20 19 22 20 18 18 18 17